Regional Weather Roundup
Issued by NWS State College, PA

Home | Current Version | Previous Version | Graphics & Text | Print | Product List | Glossary Off
Versions: 1 2 3 4 5 6 7 8 9 10 11 12 13 14 15 16 17 18 19 20 21 22 23 24 25 26 27 28 29 30 31 32 33 34 35 36 37 38 39 40 41 42 43 44 45 46 47 48 49 50

788
ASUS41 KCTP 290410
RWRCTP

REGIONAL WEATHER ROUNDUP
NATIONAL WEATHER SERVICE STATE COLLEGE PA
1200 AM EDT MON AUG 29 2016

Note: "fair" indicates few or no clouds below 12,000 feet with no
significant weather and/or obstructions to visibility.

* = STATION THAT DOES NOT REPORT PRECIPITATION /E.G. RAIN...SNOW...ETC/
    THUNDER OR FOG.

PAZ002>004-007>009-013>016-020>023-029>032-290500-
WESTERN PENNSYLVANIA

CITY           SKY/WX    TMP DP  RH WIND       PRES   REMARKS
ERIE           CLOUDY    75  73  93 S3        30.21R
MEADVILLE      CLEAR     71  69  93 S3        30.26R
FRANKLIN*        N/A     70  66  88 SW6       30.27S
NEW CASTLE     CLOUDY    69  69 100 CALM      30.26R
BEAVER COUNTY  NOT AVBL
BUTLER*        NOT AVBL
PITTSBURGH INT CLOUDY    72  66  81 E5        30.24S
PITTSBURGH     MOCLDY    70  67  90 CALM      30.23R FOG
INDIANA*       PTCLDY    70  66  88 CALM      30.27R
LATROBE        MOCLDY    72  68  88 W7        30.23S
WASHINGTON CO* CLOUDY    68  64  88 N3        30.25S
$$

PAZ004>006-010>012-017>019-024>028-033>037-041-042-045-046-049>053-290500-
CENTRAL PENNSYLVANIA

CITY           SKY/WX    TMP DP  RH WIND       PRES   REMARKS
BRADFORD       CLOUDY    68  67  96 CALM      30.28R
DUBOIS         LGT RAIN  67  64  90 W9        30.27R FOG
CLEARFIELD     NOT AVBL
JOHNSTOWN      LGT RAIN  65  64  97 S8        30.27F
ALTOONA        LGT RAIN  67  67 100 S3        30.26F
STATE COLLEGE  LGT RAIN  67  66  94 SW9       30.21F
WILLIAMSPORT   CLOUDY    72  66  81 N3        30.16F
SELINSGROVE    CLOUDY    72  69  90 NW3       30.17S
FT INDIANTOWN  CLOUDY    69  65  89 CALM      30.18F
CAPITAL CITY   MOCLDY    77  64  64 CALM      30.17F
HARRISBURG     CLOUDY    77  69  76 S7        30.17F
YORK           CLOUDY    70  66  87 CALM      30.20F
$$

PAZ038>040-043-044-047-048-054-055-060>062-067>071-290500-
EASTERN PENNSYLVANIA

CITY           SKY/WX    TMP DP  RH WIND       PRES   REMARKS
SCRANTON       CLOUDY    75  64  68 CALM      30.18F
MOUNT POCONO   CLOUDY    67  61  81 W7        30.23S
ALLENTOWN      CLEAR     74  64  71 SW7       30.17S
QUAKERTOWN*    CLOUDY    73  64  73 CALM      30.20F
READING        CLOUDY    76  64  66 CALM      30.17S
LANCASTER      PTCLDY    76  66  71 S6        30.19S
COATESVILLE    PTCLDY    72  64  78 CALM      30.22F
POTTSTOWN      CLOUDY    74  64  71 S5        30.21S
BLUE BELL      CLOUDY    73  64  73 S5        30.19S
DOYLESTOWN     PTCLDY    76  66  71 S5        30.18F
WILLOW GROVE   NOT AVBL
NORTH PHILA    PTCLDY    76  65  68 SW5       30.20S
PHILADELPHIA   PTCLDY    75  67  76 S7        30.20S
$$




USA.gov is the U.S. government's official web portal to all federal, state and local government web resources and services.